Location: Newark
(39.0622°N, 106.5590°E)
Time: 03:15:33
(UTC+00:00)

Vanguard 2 - All Passes

Search period start: 20 January 2020 00:00
Search period end: 30 January 2020 00:00
Orbit: 553 x 2938 km, 32.9° (Epoch: 19 January)

Date Brightness Start Highest point End Pass type
(mag) Time Alt. Az. Time Alt. Az. Time Alt. Az.
20 Jan - 04:08:43 10° SSW 04:17:11 25° SSE 04:23:02 10° ESE daylight
20 Jan - 06:18:22 10° WSW 06:26:11 42° S 06:31:11 10° ESE daylight
20 Jan - 08:28:54 10° WSW 08:34:21 40° S 08:38:20 10° ESE daylight
20 Jan - 10:39:17 10° WSW 10:41:50 16° SSW 10:44:16 10° SSE visible
21 Jan - 02:19:02 10° S 02:25:21 15° SSE 02:30:31 10° ESE daylight
21 Jan - 04:25:40 10° SW 04:35:07 32° SSE 04:41:18 10° ESE daylight
21 Jan - 06:36:11 10° WSW 06:44:03 47° S 06:49:02 10° ESE daylight
21 Jan - 08:46:56 10° W 08:52:06 35° SSW 08:55:58 10° SE daylight
21 Jan - 10:59:02 10° SW 10:59:27 10° SSW 10:59:51 10° SSW visible
22 Jan - 02:34:20 10° SSW 02:43:20 21° SSE 02:50:02 10° ESE daylight
22 Jan - 04:43:00 10° SW 04:53:04 39° SSE 04:59:23 10° E daylight
22 Jan - 06:54:07 10° WSW 07:01:54 49° S 07:06:50 10° ESE daylight
22 Jan - 09:05:02 10° W 09:09:48 29° SSW 09:13:27 10° SE daylight
23 Jan - 02:50:36 10° SSW 03:01:19 28° SSE 03:08:46 10° ESE daylight
23 Jan - 05:00:36 10° WSW 05:10:59 46° S 05:17:20 10° E daylight
23 Jan - 07:12:07 10° WSW 07:19:44 49° S 07:24:35 10° ESE daylight
23 Jan - 09:23:18 10° WSW 09:27:25 22° SSW 09:30:44 10° SSE daylight
24 Jan - 01:01:14 10° S 01:08:56 16° SSE 01:15:23 10° ESE daylight
24 Jan - 03:07:25 10° SW 03:19:17 35° SSE 03:27:07 10° E daylight
24 Jan - 05:18:24 10° WSW 05:28:53 52° S 05:35:12 10° E daylight
24 Jan - 07:30:11 10° W 07:37:31 45° SSW 07:42:16 10° ESE daylight
24 Jan - 09:41:53 10° WSW 09:44:57 16° SSW 09:47:35 10° S daylight
25 Jan - 01:16:17 10° SSW 01:26:53 22° SSE 01:35:06 10° ESE daylight
25 Jan - 03:24:38 10° SW 03:37:14 42° SSE 03:45:13 10° E daylight
25 Jan - 05:36:20 10° WSW 05:46:47 55° S 05:53:02 10° ESE daylight
25 Jan - 07:48:17 10° W 07:55:14 39° SSW 07:59:51 10° SE daylight
25 Jan - 10:01:55 10° SW 10:02:25 10° SW 10:02:54 10° SSW daylight
26 Jan - 01:32:19 10° SSW 01:44:48 29° SSE 01:53:58 10° E daylight
26 Jan - 03:42:08 10° SW 03:55:10 49° SSE 04:03:13 10° E daylight
26 Jan - 05:54:22 10° WSW 06:04:40 56° S 06:10:49 10° ESE daylight
26 Jan - 08:06:29 10° W 08:12:53 32° SSW 08:17:18 10° SE daylight
26 Jan - 23:44:01 10° S 23:52:03 15° SE 23:59:09 10° ESE visible
27 Jan - 01:48:58 10° SSW 02:02:45 36° SSE 02:12:25 10° E daylight
27 Jan - 03:59:53 10° WSW 04:13:07 55° S 04:21:08 10° E daylight
27 Jan - 06:12:28 10° W 06:22:31 55° S 06:28:32 10° ESE daylight
27 Jan - 08:24:48 10° W 08:30:26 25° SSW 08:34:30 10° SSE daylight
27 Jan - 23:58:36 10° S 00:09:53 21° SE 00:19:19 10° ESE daylight
28 Jan - 02:06:01 10° SW 02:20:41 43° SSE 02:30:37 10° E daylight
28 Jan - 04:17:47 10° WSW 04:31:03 59° S 04:38:59 10° E daylight
28 Jan - 06:30:36 10° W 06:40:18 50° SSW 06:46:11 10° ESE daylight
28 Jan - 08:43:26 10° WSW 08:47:52 18° SW 08:51:19 10° S daylight
29 Jan - 00:14:21 10° SSW 00:27:43 28° SSE 00:38:27 10° E daylight
29 Jan - 02:23:24 10° SW 02:38:38 50° SSE 02:48:40 10° E daylight
29 Jan - 04:35:49 10° WSW 04:48:59 62° S 04:56:47 10° ESE daylight
29 Jan - 06:48:46 10° W 06:58:01 43° SSW 07:03:44 10° SE daylight
29 Jan - 09:02:51 10° WSW 09:05:13 12° SW 09:07:17 10° SSW daylight
29 Jan - 22:28:01 10° SSE 22:34:51 13° SE 22:41:18 10° ESE visible
